Tracking 25963 objects as of 12-Aug-2022
HD Live streaming from Space Station
objects crossing your sky now

YAOGAN 28 DEB

Track YAOGAN 28 DEB now!
10-day predictions


NORAD ID: 41040
Int'l Code: 2015-064C
Perigee: 419.2 km
Apogee: 436.4 km
Inclination: 97.5 °
Period: 93.0 minutes
Semi major axis: 6798 km
RCS: Unknown
Launch date: November 8, 2015
Source: People's Republic of China (PRC)
Launch site: Taiyaun Space Center, China (TSC)

Note: This is SATELLITE DEBRIS
aabbcc
Your satellite tracking list
Your tracking list is empty




NASA's NSSDC Master Catalog

Two Line Element Set (TLE):
1 41040U 15064C   22223.77036414  .00009494  00000-0  17892-3 0  9994
2 41040  97.5144  54.1297 0012618  22.8057 337.3751 15.48647275378502
Source of the keplerian elements: AFSPC